Regional Weather Roundup
Issued by NWS New Orleans/Baton Rouge, LA

Home | Current Version | Previous Version | Graphics & Text | Print | Product List | Glossary On
Versions: 1 2 3 4 5 6 7 8 9 10 11 12 13 14 15 16 17 18 19 20 21 22 23 24 25 26 27 28 29 30 31 32 33 34 35 36 37 38 39 40 41 42 43 44 45 46 47 48 49 50
281
ASUS44 KLIX 302005
RWRLIX
NEW ORLEANS REGIONAL WEATHER ROUNDUP
NATIONAL WEATHER SERVICE NEW ORLEANS LA
300 PM CDT THU OCT 30 2014

NOTE: "FAIR" INDICATES FEW OR NO CLOUDS BELOW 12,000 FEET WITH NO
      SIGNIFICANT WEATHER AND/OR OBSTRUCTIONS TO VISIBILITY.
      SKY/WX - SKY CONDITION AND SIGNIFICANT WEATHER.
      TMP - AIR TEMPERATURE.     DP    - DEWPOINT TEMPERATURE.
      RH  - RELATIVE HUMIDITY.   PRES  - PRESSURE.
      HI  - HEAT INDEX.          WCI   - WIND CHILL INDEX.

*  THESE STATIONS ARE NOT NWS OR FAA STATIONS AND ARE NOT UNDER
   NWS QUALITY CONTROL.

LAZ038-040-048-061>063-065>067-069-302100-
SOUTHEAST LOUISIANA

CITY           SKY/WX    TMP DP  RH WIND       PRES   REMARKS
N.O. AUDUBON     N/A    N/A N/A N/A MISG        N/A
N.O. INTL ARPT MOSUNNY   73  44  35 N8        30.04F
N.O. LAKEFRONT SUNNY     73  42  32 NE3       30.04F
N.O. DOWNTOWN*   N/A     72  41  33 N5        30.04F
SLIDELL        SUNNY     75  39  27 N9        30.02F
BATON ROUGE    SUNNY     74  40  29 NE6       30.05F
BOOTHVILLE     SUNNY     71  52  50 NE12G18   30.03F
BELLE CHASSE   SUNNY     74  41  30 VRB5      30.03F
BOGALUSA*        N/A     75  35  23 NE7       30.05F
NEW ROADS*       N/A     73  43  33 N5        30.07S
GONZALES*        N/A     74  41  30 NE3       30.04F
HAMMOND*       SUNNY     75  34  22 NE5       30.05F
HOUMA*         SUNNY     75  43  31 N9        30.03F
PORT FOURCHON* CLEAR     72  52  49 NE15      30.06S

$$

MSZ070-080>082-302100-
SOUTHERN MISSISSIPPI

CITY           SKY/WX    TMP DP  RH WIND       PRES   REMARKS
MCCOMB         SUNNY     73  33  23 N8        30.05F
GULFPORT       SUNNY     74  40  29 N10       30.01F
BILOXI         SUNNY     73  40  30 N10       30.02F
PASCAGOULA     SUNNY     73  39  29 N10G21    30.01F
STENNIS ARPT*  SUNNY     73  32  21 N9        30.03F

$$

COASTAL OBSERVATIONS
LAKE AND NEARSHORE STATIONS

STATION/POSITION TIME  TEMP    WIND        PRES    WAVE
                       AIR SEA DIR/SP/G            HT/PER
                 (UTC) (F)     (DEG/KT/KT) (MB)    (FT/S)
PASCAGOULA       2000   73      10/ 10/ 15 1015.9
WAVELAND YACHT   2000   71      30/  9/ 12 1016.0
GRAND ISLE       2000   71 76   40/ 10/ 12 1017.4
SOUTHWEST PASS   2000   81 78              1016.5
NEW CANAL        2000   69 71   10/  4/  5 1017.7
SHELL BEACH      2000   68 68   30/  5/  8 1016.9

OFFSHORE STATIONS

STATION/POSITION TIME  TEMP    WIND        PRES    WAVE
                       AIR SEA DIR/SP/G            HT/PER
                 (UTC) (F)     (DEG/KT/KT) (MB)    (FT/S)
64 S DAUPHIN ISL 1900   69 78   30/ 14/ 17 1016.5    5/ 6

$$




USA.gov is the U.S. government's official web portal to all federal, state and local government web resources and services.